Weather History for Tampa, FL

Change the Weather History Date:

Wednesday, December 5, 2012

  Actual Average Record
Temperature  
Mean Temperature 69 °F 65 °F  
Max Temperature 78 °F 74 °F 84 °F (1972)
Min Temperature 59 °F 56 °F 35 °F (1974)
Degree Days  
Heating Degree Days 0 3  
Month to date heating degree days 0 15  
Since 1 July heating degree days 41 59  
Cooling Degree Days 4 3  
Month to date cooling degree days 28 16  
Year to date cooling degree days 3904 3546  
Growing Degree Days 19 (Base 50)    
Moisture  
Dew Point 57 °F    
Average Humidity 66    
Maximum Humidity 81    
Minimum Humidity 50    
Precipitation  
Precipitation 0.00 in 0.08 in 2.02 in (1964)
Month to date precipitation 0.00 0.38  
Year to date precipitation 53.79 44.21  
Sea Level Pressure  
Sea Level Pressure 30.12 in    
Wind  
Wind Speed 5 mph (NNE)    
Max Wind Speed 10 mph    
Max Gust Speed 25 mph    
Visibility 10 miles    
Events      
T = Trace of Precipitation, MM = Missing Value Source: NWS Daily Summary

Daily Weather History Graph

Daily Weather History Graph

Search for Another Location

Airport:

Trip Planner

Search our weather history database for the weather conditions in past years. The results will help you decide how hot, cold, wet, or windy it might be!

Date:

Astronomy

Dec. 05, 2012 Rise Set
Actual Time 7:07 AM EST 5:34 PM EST
Civil Twilight 6:41 AM EST 6:00 PM EST
Nautical Twilight 6:12 AM EST 6:29 PM EST
Astronomical Twilight 5:44 AM EST 6:57 PM EST
Moon 11:57 PM EST (12/5) 11:53 AM EST (12/5)
Length of Visible Light 11h 18m
Length of Day
10h 27m
Waning Gibbous, 60% of the Moon is Illuminated
Dec 5
Waning Gibbous
Dec 6
Last Quarter
Dec 13
New
Dec 20
First Quarter
Dec 28
Full

Hourly Weather History & Observations

Time (EST) Temp. Dew Point Humidity Pressure Visibility Wind Dir Wind Speed Gust Speed Precip Events Conditions
12:53 AM 64.0 °F 55.0 °F 73% 30.21 in 10.0 mi NE 3.5 mph - N/A   Mostly Cloudy
1:53 AM 64.0 °F 55.0 °F 73% 30.19 in 10.0 mi ENE 3.5 mph - N/A   Mostly Cloudy
2:53 AM 63.0 °F 55.0 °F 75% 30.17 in 10.0 mi Calm Calm - N/A   Mostly Cloudy
3:53 AM 62.1 °F 54.0 °F 75% 30.17 in 10.0 mi ENE 3.5 mph - N/A   Partly Cloudy
4:53 AM 61.0 °F 54.0 °F 78% 30.16 in 10.0 mi NNE 4.6 mph - N/A   Scattered Clouds
5:53 AM 60.1 °F 53.1 °F 78% 30.15 in 10.0 mi East 3.5 mph - N/A   Partly Cloudy
6:53 AM 60.1 °F 54.0 °F 80% 30.16 in 10.0 mi ENE 3.5 mph - N/A   Partly Cloudy
7:53 AM 62.1 °F 54.0 °F 75% 30.18 in 10.0 mi ENE 3.5 mph - N/A   Scattered Clouds
9:53 AM 72.0 °F 60.1 °F 66% 30.19 in 10.0 mi Variable 3.5 mph - N/A   Scattered Clouds
10:53 AM 73.9 °F 60.1 °F 62% 30.18 in 10.0 mi Variable 3.5 mph - N/A   Scattered Clouds
11:53 AM 73.9 °F 55.9 °F 53% 30.15 in 10.0 mi Calm Calm - N/A   Mostly Cloudy
12:53 PM 73.9 °F 60.1 °F 62% 30.12 in 10.0 mi WSW 5.8 mph - N/A   Mostly Cloudy
1:53 PM 77.0 °F 57.9 °F 52% 30.09 in 10.0 mi West 9.2 mph 18.4 mph N/A   Mostly Cloudy
2:53 PM 75.0 °F 57.0 °F 53% 30.06 in 10.0 mi West 8.1 mph - N/A   Mostly Cloudy
3:53 PM 75.0 °F 55.9 °F 51% 30.05 in 10.0 mi West 9.2 mph - N/A   Mostly Cloudy
4:53 PM 75.0 °F 55.9 °F 51% 30.05 in 10.0 mi West 5.8 mph - N/A   Mostly Cloudy
5:53 PM 72.0 °F 55.0 °F 55% 30.05 in 10.0 mi WNW 5.8 mph - N/A   Mostly Cloudy
6:53 PM 70.0 °F 55.0 °F 59% 30.06 in 10.0 mi NNW 4.6 mph - N/A   Mostly Cloudy
7:53 PM 70.0 °F 55.9 °F 61% 30.07 in 10.0 mi North 5.8 mph - N/A   Mostly Cloudy
8:53 PM 71.1 °F 59.0 °F 66% 30.07 in 10.0 mi NNE 5.8 mph - N/A   Mostly Cloudy
9:53 PM 69.1 °F 61.0 °F 75% 30.08 in 10.0 mi NE 5.8 mph - N/A   Partly Cloudy
10:53 PM 68.0 °F 62.1 °F 81% 30.07 in 10.0 mi ENE 5.8 mph - N/A   Scattered Clouds
11:53 PM 66.9 °F 62.1 °F 84% 30.07 in 10.0 mi Calm Calm - N/A   Mostly Cloudy